Find Starlink 2644

NORAD ID: 48442 Int'l Des: 2021-040 Owner: SPXS Country: US Constellation: starlink operational
LEOCIRCULAR

当前视图

正在加载3D地球...

About Starlink 2644

Starlink 2644 (NORAD 48442) is a starlink constellation satellite (v1.0) launched May 9, 2021 by SPXS of US. It operates in LEO, CIRCULAR orbit with a mass of 260.00 kg.

关于 Starlink 2644

正在加载描述...

即将过境

Passes for default location (London). Set your location on the main map for personalized predictions.

高度历史

Loading altitude history...

两行轨道根数

1 48442U 21040Q 26171.39011844 .00043053 00000-0 88781-3 0 9996
2 48442 53.1589 57.5222 0002093 209.8982 150.1906 15.45486575282453
Epoch: Jun 20, 2026 • Age: 24 hours

当前状态

高度 436.5 km
速度 7.66 km/s
星下点 49.53°N, 69.86°E
发射日期 May 9, 2021
运行时间 5.1 years
类型 internet

技术详情

分类 Payload
质量 260.00 kg
干质量 248.00 kg
总质量 260.00 kg
长度 0.20 m
直径 2.80 m
跨度 9.00 m
形状 Box + pan
制造商 SPXS
平台类型 Starlink
阶段状态 In Orbit
所有者/国家 SPXS/US

Most Searched